Vorticity
nan nan nan nan nan nan nan nan nan nan nan nan nan nan nan nan nan nan nan nan nan nan nan nan nan nan nan nan nan nan nan nan nan nan nan nan nan nan nan nan nan nan nan nan nan nan nan nan nan nan nan nan nan nan nan nan nan nan nan nan nan nan nan nan nan nan nan nan nan nan nan nan nan nan nan nan nan nan nan nan nan nan nan nan nan nan nan nan nan nan nan nan nan nan nan nan nan nan nan nan nan nan nan
nan 6 7 7 5 4 4 5 6 7 7 6 6 6 6 6 6 6 5 5 5 4 4 4 4 4 4 5 5 6 6 6 6 6 6 6 6 5 5 5 5 5 6 7 8 7 5 3 5 7 6 6 6 6 6 5 5 6 6 6 6 6 11 14 10 6 4 3 3 3 3 3 3 4 9 16 20 23 17 8 6 5 5 5 5 7 13 19 18 15 12 7 4 3 3 3 3 4 4 4 4 4 nan
nan 6 8 7 6 4 3 4 5 6 6 5 5 5 5 5 5 5 5 5 5 4 4 4 4 4 4 5 5 6 6 6 6 6 6 6 6 5 5 5 6 7 8 9 10 9 5 4 5 7 7 6 6 6 6 5 5 5 6 6 6 7 11 11 8 5 3 3 3 3 3 4 4 5 10 17 20 22 15 5 5 5 6 6 5 6 13 18 19 16 11 5 3 2 2 2 3 4 5 5 5 4 nan
nan 6 7 7 6 4 3 4 4 4 4 4 4 5 5 5 5 4 4 4 4 4 4 4 4 4 5 5 6 6 6 6 6 6 6 6 5 4 4 5 6 8 9 10 10 7 4 5 6 7 7 7 6 6 6 5 5 5 6 6 6 6 10 11 8 5 3 3 3 3 3 4 5 7 9 11 12 14 9 5 5 8 11 10 7 6 9 10 10 10 7 3 2 2 2 3 4 5 6 6 6 5 nan
nan 6 6 6 5 3 3 3 4 4 4 4 4 4 4 4 4 4 4 4 4 5 5 4 4 4 5 5 6 6 6 6 6 6 6 5 4 4 4 5 7 9 10 11 9 5 5 7 6 7 8 7 6 5 5 5 5 5 5 6 6 8 10 9 7 4 3 3 3 3 4 4 6 7 7 6 6 6 4 6 8 11 14 12 8 6 5 4 4 4 3 2 2 2 2 4 5 5 6 7 6 6 nan
nan 6 6 4 3 2 3 4 5 5 4 3 3 4 4 4 4 4 4 4 5 4 4 4 4 5 5 5 5 6 6 6 6 6 5 4 4 3 4 6 7 9 11 11 10 6 4 4 6 8 8 7 6 5 5 5 5 5 5 6 7 8 10 9 6 4 4 3 4 4 4 5 5 6 6 5 4 2 4 7 8 12 16 13 8 7 4 3 2 2 1 2 2 3 4 4 5 5 6 7 7 6 nan
nan 7 6 3 1 2 3 5 6 6 5 4 3 4 4 4 4 4 4 4 4 4 4 4 4 5 5 5 5 5 5 6 5 5 4 3 3 3 4 5 8 10 12 12 9 6 4 5 7 8 7 7 6 5 5 5 5 5 6 7 8 8 8 7 6 5 4 4 4 5 5 5 5 6 5 4 3 2 4 4 6 11 15 13 9 5 4 3 3 3 3 4 4 4 4 4 4 5 6 7 7 7 nan
nan 8 6 3 2 3 5 7 7 6 5 4 4 4 4 4 4 5 4 4 4 4 4 4 4 4 5 5 5 5 5 5 5 4 3 3 2 3 4 5 8 10 12 13 10 7 4 3 6 6 5 6 6 6 6 5 5 5 5 6 8 9 8 7 6 5 5 5 5 5 6 6 6 6 4 3 2 1 3 2 4 7 10 12 10 7 4 3 4 4 5 5 5 4 4 4 4 5 5 6 7 7 nan
nan 6 5 4 5 6 7 8 7 6 5 4 4 4 4 4 5 5 4 4 4 4 4 4 4 4 5 5 5 5 5 5 5 4 3 2 3 3 4 5 7 10 12 13 11 8 3 1 4 5 5 7 7 7 5 4 5 5 6 6 6 8 8 7 6 5 5 5 5 6 7 8 8 7 5 2 1 1 1 1 2 4 7 10 10 7 4 3 3 4 5 5 5 4 4 4 4 5 5 5 5 6 nan
nan 4 4 6 7 7 9 9 8 6 5 4 5 4 4 5 5 5 4 4 4 4 4 4 4 4 4 5 5 5 5 5 4 3 2 2 3 3 4 5 7 9 12 14 12 8 2 1 5 5 6 7 7 6 4 4 5 5 6 7 6 5 6 7 6 6 6 5 6 6 8 9 10 8 6 3 2 1 0 2 2 3 4 7 8 9 8 7 5 4 4 4 4 4 3 4 4 4 5 5 5 5 nan
nan 3 5 6 6 7 9 9 8 7 6 5 5 5 5 5 5 5 4 4 4 4 4 4 4 4 4 4 5 5 5 4 4 3 2 3 3 4 4 4 6 9 12 14 13 8 2 1 4 5 6 8 7 6 4 5 6 6 7 7 7 6 5 6 7 7 6 6 6 6 7 9 10 9 6 4 3 2 2 2 2 3 4 6 8 9 10 9 7 6 6 5 5 4 4 4 4 5 5 4 4 4 nan
nan 5 5 5 5 6 8 8 8 7 7 6 6 6 5 5 5 5 4 5 5 5 5 4 4 4 4 4 4 4 4 4 4 3 3 3 4 4 4 5 6 9 12 13 12 7 0 1 4 5 6 7 7 5 5 6 6 6 8 8 7 7 6 6 6 7 7 7 7 7 7 8 8 7 6 4 3 3 3 3 3 4 4 4 5 6 8 9 8 8 6 6 6 6 6 6 6 5 5 5 4 4 nan
nan 6 4 3 5 5 7 7 7 8 7 7 7 7 6 5 5 5 5 5 5 5 5 4 4 4 4 4 4 4 4 4 4 3 3 3 4 5 5 5 5 7 9 10 7 2 0 3 5 5 5 6 6 6 6 6 6 6 8 9 7 7 6 6 6 7 8 8 7 7 6 6 5 5 4 3 4 4 4 4 4 4 4 4 4 5 6 7 7 7 6 6 6 7 7 7 7 7 6 5 5 5 nan
nan 6 4 4 5 5 6 7 7 8 8 7 7 7 7 6 5 5 5 5 5 5 5 5 4 4 4 4 4 5 5 5 4 4 4 4 5 6 6 5 4 4 5 3 2 2 5 7 6 5 4 6 7 7 7 6 7 7 7 10 9 7 6 5 6 7 8 8 8 7 7 6 4 3 3 3 4 4 4 5 5 5 5 5 5 4 4 5 5 6 6 6 6 6 7 8 8 8 7 6 6 6 nan
nan 6 6 6 6 5 5 6 7 7 7 7 8 8 7 7 6 5 5 5 5 5 5 5 4 4 4 5 6 6 5 5 5 5 4 5 5 7 7 5 3 2 -0 -1 2 7 9 8 6 5 5 6 7 7 7 7 7 8 9 9 9 7 5 5 6 7 9 9 8 8 8 7 5 3 3 3 4 5 6 6 6 6 6 6 5 4 3 3 4 5 5 5 5 5 6 6 7 7 7 6 6 6 nan
nan 7 7 7 6 5 5 6 6 7 7 7 7 7 7 7 6 6 6 6 6 5 5 5 4 4 4 6 8 8 7 6 5 5 5 6 7 9 8 5 2 -1 -3 2 5 8 9 8 7 6 5 5 6 6 7 7 7 8 10 10 9 7 5 4 6 8 9 9 9 9 10 10 7 5 4 4 5 6 7 6 6 6 6 7 6 4 3 3 4 4 5 5 5 5 5 5 5 5 5 5 5 5 nan
nan 8 7 7 6 6 6 5 6 7 7 7 7 7 7 6 6 6 6 7 6 6 5 5 5 4 3 6 9 8 7 8 7 6 6 7 8 9 7 3 0 -1 1 6 7 7 8 8 7 7 6 5 5 6 6 6 7 8 10 10 8 6 4 4 6 8 8 8 9 10 12 12 9 6 5 5 6 7 7 7 7 6 7 7 7 5 4 4 4 5 5 5 5 5 4 5 5 5 5 5 5 5 nan
nan 9 7 6 6 7 6 6 7 7 7 7 7 7 7 6 5 6 7 7 7 7 6 5 5 4 4 4 5 5 6 8 7 7 6 7 7 8 4 -1 -1 1 5 7 7 7 6 7 8 8 7 6 5 6 6 6 7 8 9 9 8 6 4 5 6 7 7 7 8 9 11 11 9 7 5 6 7 7 7 7 7 7 7 8 8 5 4 4 4 5 5 5 5 5 5 5 5 5 5 5 5 5 nan
nan 10 8 7 6 6 7 7 8 8 7 8 8 8 7 6 5 5 6 8 7 7 7 6 5 4 4 2 1 2 6 7 6 6 6 5 5 4 0 -2 0 3 7 8 8 7 6 7 7 8 8 7 6 7 6 6 7 8 8 9 8 6 5 5 5 6 7 6 7 7 8 8 7 6 6 8 8 7 6 6 6 6 7 8 9 7 5 5 5 5 6 5 5 5 5 5 5 6 6 6 6 6 nan
nan 13 10 7 7 7 7 8 8 8 8 8 8 9 8 6 5 5 6 7 7 7 7 6 4 4 3 0 2 4 7 7 6 6 6 5 4 3 1 2 4 6 7 8 7 6 6 7 7 7 7 7 7 7 7 7 8 7 7 8 7 6 5 5 5 6 6 6 6 6 6 5 5 5 6 8 9 8 6 5 5 5 6 8 9 9 7 6 6 6 6 6 6 5 5 5 5 6 6 6 6 6 nan
nan 12 12 9 8 7 7 8 9 9 9 8 5 6 8 8 7 6 6 6 7 8 6 3 1 2 3 3 4 5 6 6 6 7 7 7 6 5 5 6 7 7 8 6 6 5 6 6 6 7 7 7 8 8 8 8 8 7 6 6 7 6 6 5 5 6 6 6 6 6 6 5 5 5 6 8 8 8 6 5 5 4 5 6 7 8 8 7 6 6 7 7 7 6 5 5 5 5 5 5 5 5 nan
nan 9 11 10 9 7 8 9 9 8 10 8 2 3 7 8 9 8 5 5 8 9 5 0 0 3 5 5 4 4 4 5 6 6 6 6 6 6 7 7 7 8 7 6 5 6 6 6 6 6 6 7 8 8 10 9 8 8 6 6 6 6 6 5 5 5 6 6 6 6 6 6 6 6 6 7 8 8 7 5 5 4 5 5 5 6 6 6 6 6 6 7 7 7 6 5 5 4 4 4 4 4 nan
nan 7 9 10 9 8 8 9 9 8 10 7 2 3 6 7 8 8 5 6 8 9 5 2 3 4 6 5 4 4 5 6 6 5 6 6 6 7 7 7 7 7 7 6 6 7 7 7 6 6 6 6 7 8 10 11 9 8 7 6 6 5 5 5 5 5 5 6 7 7 6 6 6 6 6 7 7 7 6 5 5 5 5 4 4 5 5 5 5 4 5 5 6 6 6 5 5 4 4 4 4 4 nan
nan 6 7 9 9 9 9 10 10 8 8 6 4 4 6 7 8 7 6 6 8 8 6 4 4 5 7 7 6 5 7 7 6 5 6 6 6 7 8 8 7 7 7 7 7 7 7 7 8 7 7 6 6 7 9 11 10 9 9 7 6 6 5 5 4 4 5 6 6 7 7 6 6 6 6 6 6 6 6 5 5 5 5 5 5 4 4 4 4 4 4 4 5 5 5 5 5 4 4 4 4 4 nan
nan 6 6 7 8 9 10 10 10 9 8 6 5 5 7 7 7 7 6 6 7 7 6 5 5 6 8 7 6 6 7 7 6 6 7 7 7 6 7 7 7 7 7 7 7 7 8 8 8 8 8 7 6 7 9 10 10 9 9 9 8 7 6 5 4 3 4 5 6 7 7 6 6 6 6 5 5 5 5 5 5 5 5 5 5 5 4 4 4 4 4 4 4 4 5 5 5 4 4 4 4 4 nan
nan 7 7 7 7 8 9 10 10 9 8 7 7 7 7 6 6 6 7 6 6 7 7 7 7 8 8 7 6 6 5 6 7 6 6 7 7 6 6 7 6 7 7 7 7 8 9 8 8 8 8 8 7 7 9 10 9 9 9 10 9 8 7 6 4 3 3 4 5 6 6 7 7 6 6 5 5 5 5 5 5 5 5 5 5 5 5 5 5 5 5 5 5 5 5 5 5 4 4 4 4 4 nan
nan 7 8 8 7 7 7 8 9 9 8 7 8 8 8 6 5 5 6 6 7 7 7 7 7 6 6 7 7 5 4 5 6 6 6 6 7 6 5 5 5 6 6 6 7 7 8 8 8 8 8 8 7 7 9 10 9 8 8 9 10 9 8 7 6 4 3 3 4 4 5 6 7 7 7 6 6 5 5 5 5 5 5 5 5 5 5 5 5 5 5 5 5 5 5 5 5 5 5 4 4 5 nan
nan 7 7 8 7 7 7 8 8 8 8 8 7 8 8 8 6 5 5 5 6 8 8 6 5 5 5 6 7 6 5 6 6 6 5 5 6 7 6 5 5 5 6 5 6 6 7 7 7 7 7 7 7 7 9 11 10 8 8 8 9 9 9 9 8 6 5 3 3 3 4 5 6 7 8 7 6 6 5 5 5 5 5 5 5 5 5 5 5 6 5 5 6 6 6 5 5 5 5 5 5 5 nan
nan 8 7 8 8 8 8 8 8 8 8 8 7 7 7 8 7 7 6 5 6 6 7 6 6 6 6 6 7 6 6 7 7 6 4 4 6 7 7 6 5 5 5 5 6 6 6 7 7 7 7 7 7 7 8 10 11 9 8 7 8 8 9 9 9 8 7 5 3 3 3 4 5 6 8 8 8 7 6 5 5 5 5 5 5 5 5 5 5 5 5 5 6 6 6 6 6 5 5 5 5 5 nan
nan 9 8 7 7 8 9 9 9 8 8 8 7 6 6 6 7 8 8 6 6 6 7 7 7 7 6 6 6 6 6 7 7 7 5 3 4 6 6 6 6 5 6 6 7 7 7 7 7 7 7 8 7 7 7 10 12 11 8 7 7 7 8 9 10 10 9 7 5 3 3 3 4 5 7 8 8 8 7 6 6 5 5 5 5 5 5 5 5 5 5 5 6 6 6 6 6 6 5 5 5 5 nan
nan 8 8 7 6 6 8 9 8 8 9 8 6 6 5 6 7 8 8 7 6 7 7 7 7 7 7 5 6 6 8 7 7 8 7 4 4 4 4 5 5 5 6 6 7 8 8 8 7 7 7 8 8 7 7 9 12 13 10 8 7 8 8 9 10 11 11 9 7 5 4 3 4 4 5 6 8 9 9 8 6 6 5 5 5 5 4 4 5 5 5 5 5 6 6 6 6 6 5 5 5 5 nan
nan 8 8 7 5 5 7 8 8 7 8 8 5 6 7 7 7 8 8 7 7 7 8 8 7 7 7 6 6 6 9 8 7 7 7 6 6 5 6 5 5 5 6 6 6 7 8 8 7 7 7 7 7 7 7 8 10 13 14 11 9 8 9 9 10 11 12 11 10 8 6 4 4 4 4 5 6 8 8 8 8 7 6 6 5 5 5 4 4 4 5 5 5 6 6 6 6 6 5 5 5 5 nan
nan 10 10 9 7 6 6 8 9 8 8 8 6 7 9 8 8 8 7 7 8 7 8 9 8 9 7 6 6 7 8 8 7 8 7 7 8 8 9 7 6 5 6 6 6 6 7 7 7 6 7 7 6 7 7 7 8 11 14 14 12 11 9 10 11 11 12 12 11 10 7 5 4 4 4 5 5 6 7 8 8 8 7 7 6 6 5 4 4 4 4 5 5 5 6 6 6 5 5 5 5 5 nan
nan 9 10 9 9 8 8 7 8 8 9 9 9 10 10 9 8 8 7 7 8 7 8 8 8 8 7 7 6 6 6 8 8 8 7 7 8 9 10 8 7 7 7 6 6 6 6 6 7 6 7 7 6 6 6 7 7 8 11 13 13 13 11 11 11 12 12 12 12 11 9 7 5 4 4 4 5 5 6 7 7 7 7 7 7 7 6 6 6 5 5 5 5 5 5 6 6 5 5 5 5 5 nan
nan 6 7 6 7 9 9 8 8 8 9 11 12 12 12 10 8 7 7 7 7 6 7 8 7 6 6 7 7 6 6 8 8 8 7 7 8 9 9 8 8 8 8 7 7 6 6 6 6 6 6 6 6 6 6 6 7 7 9 12 12 13 14 13 12 12 12 12 12 11 10 8 6 5 5 4 4 5 5 6 6 7 7 7 7 7 7 7 7 7 6 5 5 5 5 6 6 6 6 6 6 5 nan
nan 6 9 7 7 8 9 8 8 8 9 10 10 11 11 9 7 6 6 7 7 6 7 8 7 6 6 6 7 6 6 7 8 8 7 7 8 9 9 8 8 8 8 8 8 8 7 6 6 6 7 7 7 7 6 7 7 7 8 11 12 13 15 16 15 15 14 13 12 12 11 9 8 6 6 5 5 4 5 5 6 6 6 7 7 7 7 7 7 8 7 6 6 5 5 6 7 7 7 6 6 6 nan
nan 8 10 12 10 9 8 8 8 9 9 7 7 8 8 8 7 7 7 7 7 6 6 8 8 7 6 6 7 7 6 6 6 7 7 7 7 8 8 9 8 8 8 8 9 9 9 7 7 7 7 8 8 8 8 8 8 7 8 9 10 11 12 14 16 17 17 15 14 13 12 10 9 8 7 6 6 5 5 5 5 6 6 7 7 7 6 7 7 8 8 7 7 6 6 6 7 7 7 6 6 6 nan
nan 9 8 11 10 10 7 7 8 10 9 8 7 7 7 8 8 8 7 8 8 6 6 8 9 8 7 7 7 8 7 6 6 6 7 7 7 7 7 8 8 8 7 8 8 9 9 8 8 8 7 7 7 7 8 8 8 7 7 7 8 8 9 10 11 13 16 18 17 15 13 12 11 9 8 7 6 6 6 6 6 6 6 6 6 6 6 6 7 7 7 7 7 6 6 6 7 7 7 6 5 5 nan
nan 9 8 8 8 8 8 8 8 9 9 9 7 7 7 8 8 8 8 9 8 7 6 7 8 8 8 8 8 9 9 8 7 7 7 8 7 7 8 8 8 8 8 8 8 8 8 8 8 8 8 7 8 8 8 8 8 7 7 7 7 7 8 8 9 9 11 15 18 18 15 13 12 11 10 8 7 7 6 6 6 6 6 6 6 6 6 6 6 6 6 6 6 6 6 6 6 7 7 6 5 5 nan
nan 8 7 6 7 7 10 9 8 7 8 8 8 8 8 8 8 8 9 9 9 8 7 7 6 7 7 8 8 8 9 9 9 8 8 8 7 7 8 9 9 8 9 8 7 7 8 8 8 8 8 8 9 9 8 8 7 7 7 7 6 6 6 7 8 7 8 10 14 18 19 15 13 12 11 10 9 8 7 7 7 7 7 7 6 6 6 6 6 6 6 6 6 6 6 6 6 6 6 6 5 5 nan
nan 7 6 6 6 7 9 10 7 6 7 8 8 8 8 8 8 8 8 7 8 9 9 7 6 6 8 8 7 7 8 9 9 8 8 7 7 7 8 9 9 9 9 9 7 7 8 8 8 8 9 9 9 9 8 8 8 7 7 6 6 6 5 6 7 6 6 7 10 14 19 18 15 13 13 12 11 9 8 8 8 8 8 8 7 6 6 5 5 6 6 6 6 6 6 6 6 6 6 6 6 5 nan
nan 8 8 6 6 7 8 8 5 4 5 7 8 9 8 8 9 9 8 7 7 7 7 6 7 7 9 9 9 7 7 8 8 9 8 7 7 7 7 8 8 8 10 9 7 7 8 9 8 8 9 9 9 8 8 8 8 7 7 7 8 7 6 6 6 6 6 6 7 9 14 19 17 14 14 13 12 11 10 10 9 9 9 8 8 7 6 5 5 5 5 5 6 6 6 6 6 6 6 6 6 6 nan
nan 8 11 10 9 9 8 5 2 2 3 5 7 9 10 10 11 11 12 11 7 5 3 3 4 6 8 9 9 8 7 7 7 8 8 7 7 7 7 7 7 8 9 9 8 7 8 9 9 9 9 8 8 7 8 8 8 8 8 9 10 11 9 7 6 6 6 6 6 7 9 16 18 17 15 14 14 13 12 11 10 9 9 8 8 7 6 6 6 5 5 5 5 5 6 6 6 6 6 6 6 6 nan
nan 4 9 13 14 15 14 8 3 2 3 4 5 7 9 10 10 10 11 11 9 6 3 2 2 2 5 7 8 8 7 7 8 8 9 8 8 7 7 7 7 8 9 8 8 8 8 8 9 9 9 7 7 8 9 9 8 8 9 10 11 12 11 9 7 6 6 6 5 6 7 10 15 18 18 17 17 16 15 13 12 10 9 9 8 8 8 7 7 7 6 6 5 5 6 6 6 6 6 6 7 7 nan
nan 1 2 7 10 14 17 15 9 6 4 4 4 5 5 6 6 5 5 7 9 9 8 6 5 3 3 5 6 6 7 8 8 9 9 9 9 8 7 8 8 8 8 8 8 9 9 9 9 9 8 8 8 8 10 10 10 9 9 9 9 11 11 9 8 7 6 6 6 7 7 6 8 12 17 18 19 20 19 17 14 13 11 10 10 9 9 9 9 9 8 7 7 6 6 6 6 6 6 6 7 7 nan
nan 5 2 2 4 6 10 12 10 8 4 2 2 3 4 3 3 2 3 7 10 11 11 10 9 7 4 2 2 4 5 7 8 8 8 9 10 9 7 8 9 9 9 8 9 9 9 9 9 9 8 8 8 8 10 11 10 10 9 9 8 9 9 8 8 7 7 6 7 7 8 7 6 6 9 12 14 17 21 20 18 16 14 13 12 11 10 11 11 11 10 9 8 8 7 7 7 6 6 6 6 6 nan
nan 10 6 5 6 6 6 7 7 8 7 4 3 4 5 4 3 3 5 9 12 10 9 9 9 9 7 6 5 5 6 7 8 8 8 9 10 11 9 8 9 9 9 9 9 9 8 9 8 8 8 8 7 7 8 9 9 8 8 9 9 9 8 8 8 7 7 6 7 7 8 8 8 6 6 8 8 10 15 19 20 19 17 15 14 13 12 11 12 12 11 10 10 9 8 8 8 7 7 7 6 6 nan
nan 11 8 7 10 11 12 10 9 9 10 9 8 8 8 8 6 5 5 7 11 12 10 10 9 10 11 11 10 9 10 11 11 10 8 8 10 12 12 10 9 9 9 10 10 9 7 6 7 7 7 8 7 7 7 8 7 6 7 8 9 9 9 8 8 8 8 7 8 8 7 7 8 8 7 7 7 8 9 14 18 21 21 19 17 16 13 12 12 12 11 11 10 9 9 9 8 8 8 7 7 7 nan
nan 11 9 8 10 11 13 12 10 8 9 10 11 10 12 13 9 5 3 3 6 10 13 14 14 12 10 10 10 10 12 13 14 13 9 7 8 10 11 11 10 10 10 11 11 11 8 6 6 6 7 7 7 8 8 8 8 7 7 8 8 9 10 9 10 9 9 9 9 8 7 7 7 8 8 8 8 8 8 9 12 17 21 22 21 20 19 14 13 13 13 11 10 10 9 9 9 9 9 8 8 7 nan
nan 8 8 7 7 6 8 10 10 9 7 8 9 12 14 14 11 8 5 3 4 7 12 14 15 14 11 9 9 10 11 11 12 12 10 8 8 9 9 9 9 11 11 12 12 13 12 8 8 7 7 7 7 8 9 9 9 8 8 8 8 8 10 11 12 12 12 11 10 10 9 7 7 8 9 9 9 9 9 8 8 9 14 20 23 24 26 24 19 16 14 13 12 11 11 10 10 10 10 9 9 9 nan
nan 7 8 7 8 8 8 10 11 12 9 6 7 10 14 13 12 12 14 13 11 9 8 9 11 12 11 9 8 9 8 8 8 8 9 10 10 10 8 7 8 9 12 12 12 12 13 11 11 10 8 7 7 8 9 9 9 9 8 9 8 8 9 11 12 12 13 13 12 12 11 9 8 7 8 8 7 7 8 7 7 7 8 12 15 18 20 25 26 24 18 16 14 13 13 12 12 11 10 10 10 10 nan
nan 8 10 10 12 13 14 13 11 12 12 8 8 8 11 13 14 14 17 17 14 10 5 4 7 8 9 8 8 9 7 6 7 6 7 9 9 9 9 7 7 8 10 10 10 10 11 12 13 13 11 8 7 8 9 9 9 9 8 8 8 8 9 9 10 11 11 12 12 13 13 11 10 9 8 7 6 5 5 5 5 6 7 8 9 10 12 14 18 21 21 19 16 14 14 14 13 12 11 10 10 10 nan
nan 10 9 9 11 11 13 13 12 11 11 11 9 6 8 10 11 12 11 10 8 6 4 4 4 5 7 7 7 9 7 6 7 7 7 8 7 7 7 8 8 9 8 8 8 7 7 9 12 15 15 13 11 9 9 9 9 9 9 8 8 8 9 9 9 9 9 9 10 11 11 11 11 11 10 9 8 7 6 5 4 4 6 7 8 9 10 12 13 14 18 18 18 16 14 13 13 12 11 10 10 10 nan
nan 15 7 3 6 7 8 10 10 10 10 11 9 5 5 8 9 11 11 7 5 5 6 5 3 4 6 7 7 7 7 7 7 7 8 8 7 6 7 8 9 10 8 6 7 8 7 8 9 11 11 14 15 13 11 10 8 8 9 8 8 8 8 9 9 9 8 8 9 9 9 9 10 10 10 9 10 10 8 7 6 4 5 7 7 8 8 10 14 15 16 17 17 17 15 12 11 11 10 10 10 10 nan
nan 14 8 4 4 7 10 11 7 8 9 10 10 8 6 8 9 11 12 11 9 6 4 5 5 4 6 7 7 7 9 9 8 8 8 7 7 6 7 8 8 8 8 8 8 8 8 8 10 11 7 8 12 14 12 12 11 10 9 9 8 8 8 8 8 9 9 9 9 9 9 9 10 10 10 10 10 10 10 9 9 7 6 6 7 7 8 9 11 12 14 18 18 16 14 12 11 10 10 10 9 9 nan
nan 10 9 9 9 8 11 11 9 8 7 7 8 8 7 8 8 9 9 10 10 7 4 5 7 5 4 7 10 11 11 12 10 9 8 7 6 5 7 8 7 7 8 9 9 9 9 9 10 11 9 7 9 10 10 11 11 10 10 10 9 8 8 8 8 9 9 9 9 9 10 10 10 10 11 11 10 10 10 10 10 10 9 8 8 8 10 10 9 9 10 14 18 20 16 13 11 9 9 9 9 9 nan
nan 9 11 12 11 10 9 9 10 8 6 6 6 7 7 7 7 6 6 7 8 9 6 7 10 10 5 5 10 12 11 11 13 11 9 8 7 6 6 7 7 7 7 8 9 9 8 8 8 8 9 8 10 8 8 8 10 10 10 10 10 10 9 8 8 8 7 7 8 8 9 9 9 9 10 10 10 10 10 10 9 10 10 9 9 9 10 10 8 7 8 9 11 17 17 12 10 9 9 9 9 10 nan
nan 10 15 16 14 11 8 8 9 8 8 9 8 7 7 7 7 6 7 7 8 9 7 6 9 12 10 7 8 10 10 9 9 10 10 9 9 8 6 5 6 7 7 7 7 7 6 7 7 6 7 8 9 8 7 7 10 11 11 10 10 10 10 7 6 6 6 5 6 6 7 8 8 8 9 9 10 11 11 10 10 9 9 10 9 9 9 10 9 7 5 5 4 8 11 10 9 8 8 8 9 9 nan
nan 8 14 18 17 13 9 8 8 8 9 10 8 7 8 8 8 8 9 10 10 11 10 8 10 12 15 11 8 8 9 8 7 8 9 9 10 10 9 8 7 7 7 7 7 7 6 5 6 6 7 7 7 7 6 7 8 8 8 10 10 9 8 7 6 5 6 6 6 6 6 8 9 9 9 10 10 10 11 11 10 10 10 10 10 9 9 10 10 8 6 6 4 4 6 8 9 8 7 7 8 8 nan
nan 4 6 11 13 14 11 9 9 9 10 10 9 8 9 9 9 8 9 11 12 14 14 13 13 14 15 13 9 8 9 8 8 7 7 8 10 11 11 10 10 9 9 8 8 8 7 5 5 6 6 7 7 7 7 7 7 7 7 8 9 8 8 8 9 8 8 9 8 8 7 7 8 9 9 8 9 9 11 11 10 10 10 9 9 9 10 11 11 12 12 12 11 10 8 9 9 9 8 8 8 8 nan
nan nan nan nan nan nan nan nan nan nan nan nan nan nan nan nan nan nan nan nan nan nan nan nan nan nan nan nan nan nan nan nan nan nan nan nan nan nan nan nan nan nan nan nan nan nan nan nan nan nan nan nan nan nan nan nan nan nan nan nan nan nan nan nan nan nan nan nan nan nan nan nan nan nan nan nan nan nan nan nan nan nan nan nan nan nan nan nan nan nan nan nan nan nan nan nan nan nan nan nan nan nan nan
CAPE
1637 1479 1323 1181 1051 1051 927 804 650 650 510 411 348 348 382 451 451 451 396 342 342 265 197 160 98 98 60 29 13 13 2 2 3 3 4 3 3 1 0 0 0 0 nan nan nan nan nan nan nan nan nan nan nan nan nan nan nan nan nan nan nan nan nan 13 32 32 8 4 1 1 nan nan nan nan nan 192 192 497 449 459 459 369 290 322 338 338 406 448 547 547 632 214 143 143 117 82 82 66 40 8 8 0 nan
1713 1654 1451 1161 985 985 865 746 596 596 459 393 392 392 425 428 428 396 314 244 244 202 142 96 46 46 19 1 nan nan 0 0 0 0 1 1 1 0 1 0 0 nan nan nan nan nan nan nan nan nan nan nan nan nan nan nan nan nan nan nan nan nan nan 40 25 25 8 2 nan nan nan nan nan nan 21 327 327 611 430 445 445 357 298 332 383 383 511 607 686 686 537 244 188 188 142 104 104 74 45 18 18 2 nan
1684 1732 1496 1157 1011 1011 845 727 617 617 482 413 408 408 439 408 408 316 243 180 180 144 95 43 8 8 nan nan nan nan nan nan nan nan 0 0 0 0 0 nan nan nan nan nan nan nan nan nan nan nan nan nan nan nan nan nan nan nan nan nan nan nan nan 51 26 26 8 1 nan nan nan nan nan nan 72 435 435 637 442 428 428 371 364 370 451 451 591 684 662 662 516 275 195 195 151 102 102 60 53 22 22 6 1
1654 1603 1414 1198 1000 1000 908 786 636 636 499 432 457 457 423 359 359 246 204 146 146 94 41 5 nan nan nan nan nan nan nan nan nan nan nan 0 0 0 nan nan nan nan nan nan nan nan nan nan nan nan nan nan nan nan nan nan nan nan nan nan nan nan nan 152 22 22 7 0 nan nan nan nan nan nan 86 456 456 571 526 467 467 472 405 349 489 489 540 574 544 544 445 284 205 205 132 85 85 46 39 34 34 12 4
1579 1482 1341 1126 987 987 974 889 730 730 586 482 475 475 408 314 314 211 150 97 97 54 4 nan nan nan nan nan nan nan nan nan nan nan nan 0 0 nan nan nan nan nan nan nan nan nan nan nan nan nan nan nan nan nan nan nan nan nan nan nan nan nan 7 77 17 17 6 1 0 0 0 nan 0 0 68 316 316 329 419 470 470 508 445 360 494 494 549 533 467 467 363 251 163 163 112 68 68 42 36 32 32 16 8
1556 1408 1234 1101 1009 1009 1044 956 751 751 637 528 494 494 394 274 274 178 101 56 56 21 nan nan nan nan nan nan nan nan nan nan nan nan nan 0 0 nan nan nan nan nan nan nan nan nan nan nan nan nan nan nan nan nan nan nan nan nan nan nan nan nan 10 37 14 14 6 4 2 2 5 3 2 2 41 185 185 184 246 355 355 486 458 376 469 469 515 443 371 371 275 202 130 130 81 39 39 24 15 19 19 19 10
1535 1384 1251 1078 1069 1069 1066 939 810 810 686 581 479 479 351 263 263 146 75 34 34 1 nan nan nan nan nan nan nan nan nan nan nan nan nan nan nan nan nan nan nan nan nan nan nan nan nan nan nan nan nan nan nan nan nan nan nan nan nan nan nan nan 14 32 16 16 11 9 10 10 9 9 5 5 17 121 121 159 167 267 267 382 412 368 421 421 398 329 271 271 223 164 98 98 41 12 12 6 4 9 9 17 13
1572 1409 1273 1093 1044 1044 1042 915 794 794 707 595 495 495 341 230 230 119 52 18 18 nan nan nan nan nan nan nan nan nan nan nan nan nan nan nan nan nan nan nan nan nan nan nan nan nan nan nan nan nan nan nan nan nan nan nan nan nan nan nan nan 1 18 39 26 26 20 14 11 11 11 15 12 12 14 26 26 68 108 173 173 250 320 363 360 360 305 241 165 165 130 112 67 67 18 4 4 2 2 4 4 13 15
1608 1399 1250 1069 1021 1021 976 891 814 814 735 653 478 478 359 224 224 133 46 14 14 2 nan nan nan nan nan nan nan nan nan nan nan nan nan nan nan nan nan nan nan nan nan nan nan nan nan nan nan nan nan nan nan nan nan nan nan nan nan nan nan nan 21 63 22 22 26 19 13 13 10 17 18 18 13 6 6 8 64 87 87 148 210 275 280 280 234 159 113 113 70 65 40 40 8 3 3 1 1 3 3 7 14
1539 1389 1184 1043 954 954 909 867 800 800 722 645 532 532 378 245 245 150 56 19 19 20 20 5 nan nan nan nan nan nan nan nan nan nan nan nan nan nan nan nan nan nan nan nan nan nan nan nan nan nan nan nan nan nan nan nan nan nan nan nan nan 3 28 81 24 24 28 23 12 12 11 16 20 20 15 4 4 3 9 21 21 52 82 157 197 197 165 131 97 97 54 39 28 28 10 4 4 1 2 4 4 6 9
1516 1321 1122 975 889 889 887 847 821 821 777 666 555 555 426 290 290 169 88 53 53 71 73 56 9 9 nan nan nan nan nan nan nan nan nan nan nan nan nan nan nan nan nan nan nan nan nan nan nan nan nan nan nan nan nan nan nan nan nan nan nan 18 39 80 31 31 28 19 10 10 9 17 22 22 17 5 5 1 4 7 7 7 12 44 61 61 58 81 73 73 76 47 43 43 21 10 10 7 5 6 6 8 7
1481 1295 1142 995 869 869 868 870 878 878 801 684 610 610 475 361 361 234 145 105 105 107 129 108 52 52 nan nan nan nan nan nan nan nan nan nan nan nan nan nan nan nan nan nan nan nan nan nan nan nan nan nan nan nan nan nan nan nan nan nan nan 21 56 58 27 27 20 12 6 6 5 15 23 23 19 7 7 2 0 2 2 7 8 6 8 8 15 18 49 49 66 59 52 52 48 29 29 17 12 10 10 9 8
1358 1263 1076 819 851 851 811 893 899 899 860 739 662 662 559 434 434 300 206 165 165 168 148 126 103 103 19 nan nan nan nan nan nan nan nan nan nan nan nan nan nan nan nan nan nan nan nan nan nan nan nan nan nan nan nan nan nan nan nan 5 5 25 58 40 19 19 17 9 2 2 2 9 17 17 16 9 9 3 nan nan nan 0 5 8 11 11 13 13 14 14 35 40 52 52 57 54 54 43 40 33 33 22 12
1155 1149 776 658 835 835 795 837 921 921 842 795 752 752 644 511 511 393 294 250 250 209 188 143 119 119 61 0 nan nan nan nan nan nan nan 2 2 1 0 nan nan nan nan nan nan nan nan nan nan nan nan nan nan nan nan nan nan nan nan 6 6 29 45 25 14 14 10 4 1 1 0 5 8 8 6 4 4 0 nan nan nan nan 0 7 9 9 10 11 13 13 16 14 25 25 36 51 51 57 65 58 58 54 39
808 625 381 544 710 710 746 824 904 904 900 853 808 808 695 557 557 464 360 315 315 249 205 139 116 116 113 75 7 7 3 10 23 23 29 50 50 20 1 nan nan nan nan nan nan nan nan nan nan nan nan nan nan nan nan nan nan nan nan 8 8 25 31 18 8 8 4 2 3 3 6 6 4 4 2 0 0 nan nan nan nan nan nan 4 10 10 8 9 9 9 10 11 11 11 9 22 22 41 56 54 54 60 54
216 99 151 500 593 593 665 812 926 926 921 875 791 791 712 604 604 507 425 356 356 289 221 176 152 152 191 236 212 212 168 169 129 129 118 109 109 66 1 nan nan nan 0 nan nan nan nan nan nan nan nan nan nan nan nan nan nan nan nan 11 11 25 25 13 4 4 0 2 8 8 13 14 9 9 4 nan nan nan nan nan nan nan nan 4 11 11 4 4 7 7 9 8 6 6 6 6 6 10 26 32 32 36 32
nan nan nan 457 548 548 616 757 871 871 942 860 776 776 695 620 620 521 465 418 418 326 258 190 188 188 274 299 229 229 nan 5 205 205 147 139 139 57 nan nan nan 0 0 nan nan nan nan nan nan nan nan nan nan nan nan nan nan nan nan 13 13 26 22 12 6 6 1 2 13 13 20 21 15 15 6 2 2 0 nan nan nan nan nan 3 15 15 4 1 2 2 4 5 4 4 3 3 3 4 6 9 9 7 8
nan nan 297 391 504 504 603 708 817 817 886 846 728 728 681 604 604 536 477 455 455 358 291 247 246 246 314 198 0 0 nan nan nan nan 0 87 87 12 0 1 1 0 nan nan nan nan nan nan nan nan nan nan nan nan nan nan nan nan 1 16 16 29 23 11 6 6 1 0 11 11 21 24 16 16 10 8 8 4 nan nan nan nan nan 4 31 31 8 2 1 1 3 6 5 5 3 4 4 5 3 4 4 2 2
nan 51 221 357 465 465 557 659 763 763 831 794 718 718 672 591 591 491 462 466 466 390 321 278 281 281 329 30 nan nan nan nan nan nan nan nan nan nan nan 1 1 0 nan nan nan nan nan nan nan nan nan nan nan nan nan nan nan nan 1 17 17 35 26 15 9 9 3 1 5 5 13 20 12 12 9 18 18 11 1 nan nan nan 0 8 55 55 24 5 3 3 6 8 14 14 7 10 10 13 9 10 10 6 2
1 227 268 316 343 343 367 444 565 565 665 660 530 530 691 645 645 473 384 413 413 415 365 370 205 205 107 nan nan nan nan nan nan nan nan nan nan nan nan 0 0 0 0 nan nan nan nan nan nan nan nan nan nan nan nan nan nan nan 0 12 12 54 54 27 27 27 17 7 1 1 0 0 0 0 5 27 27 31 13 2 2 nan 2 14 52 52 66 49 36 36 42 61 44 44 30 20 20 22 25 31 31 31 26
524 611 386 358 310 310 312 407 527 527 591 587 215 215 235 227 227 385 303 303 303 381 413 236 nan nan nan nan nan nan nan nan nan nan nan nan nan 0 nan 0 0 0 0 0 nan nan nan nan nan nan nan nan nan nan nan nan nan nan nan 8 8 67 77 54 32 32 24 14 5 5 2 0 nan nan 1 22 22 47 21 6 6 nan 0 6 47 47 51 59 60 60 62 74 57 57 41 27 27 22 25 39 39 32 34
643 740 694 522 404 404 405 391 488 488 490 517 107 107 68 80 80 60 40 9 9 34 82 nan nan nan nan nan nan nan nan nan nan nan nan nan nan nan 0 0 0 nan 0 0 0 0 0 0 nan nan nan nan nan nan nan nan nan nan nan 2 2 52 109 98 66 66 40 23 13 13 6 2 nan nan nan 7 7 44 46 10 10 1 nan 0 13 13 34 44 52 52 63 76 68 68 59 43 43 36 31 33 33 34 36
655 754 783 640 541 541 513 411 446 446 396 161 99 99 20 6 6 5 2 nan nan nan nan nan nan nan nan nan nan nan nan nan nan nan nan nan nan nan 0 0 0 0 nan 0 nan nan 0 0 nan nan nan nan nan nan nan nan nan nan nan 0 0 24 116 167 139 139 85 55 28 28 13 6 1 1 0 2 2 27 38 18 18 3 nan nan 2 2 12 20 28 28 35 46 68 68 69 60 60 44 33 35 35 38 32
635 731 762 694 596 596 610 498 407 407 412 214 59 59 18 0 0 nan nan nan nan nan nan nan nan nan nan nan nan nan nan nan nan nan nan nan nan nan nan nan nan nan 0 0 nan nan 0 0 0 0 nan nan nan nan nan nan nan nan nan nan nan 8 105 209 223 223 167 118 79 79 49 20 7 7 2 1 1 5 17 17 17 10 0 nan nan nan 1 6 12 12 17 20 47 47 69 72 72 66 51 38 38 33 35
705 718 819 752 657 657 629 543 424 424 398 319 83 83 8 nan nan nan nan nan nan nan nan nan nan nan nan nan nan nan nan nan nan nan nan nan nan nan nan 0 0 nan nan nan nan nan nan nan nan nan nan nan nan nan nan nan nan nan nan nan nan nan 49 213 270 270 258 198 181 181 132 84 33 33 8 4 4 6 9 14 14 14 8 3 1 1 nan 2 4 4 9 10 26 26 48 64 64 82 66 50 50 54 47
734 798 779 774 682 682 638 554 407 407 332 304 147 147 47 3 3 nan nan nan nan nan nan nan nan nan nan nan nan nan nan nan nan nan nan nan nan nan nan nan nan 0 0 0 0 0 nan nan nan nan nan nan nan nan nan nan nan nan nan nan nan nan 12 139 271 271 307 292 251 251 230 189 123 123 47 25 25 14 19 25 25 25 24 23 10 10 3 1 5 5 8 5 10 10 30 67 67 86 94 76 76 69 70
589 806 745 763 667 667 627 541 396 396 268 242 117 117 70 84 84 3 1 nan nan nan nan nan nan nan nan nan nan nan nan nan nan nan nan nan nan nan nan nan nan nan nan nan nan nan nan nan nan nan nan nan nan nan nan nan nan nan nan nan nan nan nan 41 208 208 330 345 327 327 305 282 245 245 167 95 95 49 49 50 50 50 50 49 21 21 16 8 9 9 7 5 13 13 24 49 49 78 112 118 118 108 97
488 663 706 718 649 649 620 538 390 390 256 229 74 74 48 129 129 65 20 1 1 nan nan nan nan nan nan nan nan nan nan nan nan nan nan nan nan nan nan nan nan nan nan nan nan nan nan nan nan nan nan nan nan nan nan nan nan nan nan nan nan nan nan 6 96 96 286 372 384 384 338 343 323 323 303 237 237 177 157 138 138 139 120 101 67 67 39 18 12 12 13 15 17 17 31 49 49 79 116 138 138 143 163
640 633 639 670 628 628 604 506 407 407 269 216 135 135 70 123 123 91 52 9 9 nan nan nan nan nan nan nan nan nan nan nan nan nan nan nan nan nan nan nan nan nan nan nan nan nan nan nan nan nan nan nan nan nan nan nan nan nan nan nan nan nan nan nan 20 20 202 377 444 444 428 380 388 388 366 372 372 349 300 255 255 233 214 171 150 150 90 58 48 48 32 30 35 35 50 70 70 92 135 162 162 186 210
699 642 622 553 577 577 546 518 423 423 283 228 168 168 113 97 97 87 49 28 28 3 nan nan nan nan nan nan nan nan nan nan nan nan nan nan nan nan nan nan nan nan nan nan nan nan nan nan nan nan nan nan nan nan nan nan nan nan nan nan nan nan nan nan nan nan 109 308 422 422 498 454 464 464 441 451 451 486 460 435 435 381 330 307 257 257 209 164 145 145 112 68 74 74 96 103 103 131 160 212 212 239 267
718 603 557 511 534 534 529 496 462 462 321 221 201 201 87 99 99 82 42 35 35 12 4 nan nan nan nan nan nan nan nan nan nan nan nan nan nan nan nan nan nan nan nan nan nan nan nan nan nan nan nan nan nan nan nan nan nan nan nan nan nan nan nan nan nan nan 14 160 378 378 509 529 510 510 490 499 499 505 573 643 643 551 496 440 385 385 362 311 261 261 216 176 140 140 146 174 174 204 237 270 270 301 329
738 660 581 505 495 495 516 481 360 360 387 260 239 239 102 89 89 50 47 17 17 33 13 2 nan nan nan nan nan nan nan nan nan nan nan nan nan nan nan nan nan nan nan nan nan nan nan nan nan nan nan nan nan nan nan nan nan nan nan nan nan nan nan nan nan nan nan 46 241 241 433 538 587 587 570 579 579 553 593 663 663 669 708 614 554 554 497 443 391 391 369 321 250 250 256 261 261 292 325 358 358 391 393
763 756 574 494 457 457 476 505 420 420 418 352 204 204 118 81 81 48 34 11 11 11 1 nan nan nan nan nan nan nan nan nan nan nan nan nan nan nan nan nan nan nan nan nan nan nan nan nan nan nan nan nan nan nan nan nan nan nan nan nan nan nan nan nan nan nan nan 5 120 120 363 492 600 600 647 625 625 604 581 651 651 722 756 792 762 762 700 608 582 582 528 475 396 396 402 381 381 387 419 452 452 485 489
716 711 633 480 411 411 435 436 513 513 458 333 160 160 162 74 74 31 24 10 10 3 nan nan nan nan nan nan nan nan nan nan nan nan nan nan nan nan nan nan nan nan nan nan nan nan nan nan nan nan nan nan nan nan nan nan nan nan nan nan nan nan nan nan nan nan nan nan 36 36 245 420 553 553 661 708 708 685 632 638 638 670 768 875 948 948 884 818 754 754 695 638 553 553 530 537 537 484 519 523 523 557 592
711 706 483 537 370 370 397 371 438 438 379 276 183 183 115 36 36 28 18 10 10 5 0 nan nan nan nan nan nan nan nan nan nan nan nan nan nan nan nan nan nan nan nan nan nan nan nan nan nan nan nan nan nan nan nan nan nan nan nan nan nan nan nan nan nan nan nan nan 3 3 105 322 479 479 646 688 688 698 676 650 650 651 716 819 895 895 973 977 943 943 879 816 756 756 699 674 674 616 622 597 597 634 671
531 672 469 339 460 460 334 338 367 367 337 312 206 206 63 31 31 26 20 13 13 9 3 0 0 0 nan nan nan nan nan nan nan nan nan nan nan nan nan nan nan nan nan nan nan nan nan nan nan nan nan nan nan nan nan nan nan nan nan nan nan nan nan nan nan nan nan nan nan nan 17 158 348 348 537 672 672 744 717 654 654 660 666 702 841 841 918 993 1033 1033 1080 1014 946 946 882 819 819 792 731 704 704 711 719
476 582 676 419 486 486 417 332 302 302 253 272 223 223 70 44 44 29 22 18 18 13 4 1 1 1 1 0 nan nan nan nan nan nan nan nan nan nan nan nan nan nan nan nan nan nan nan nan nan nan nan nan nan nan nan nan nan nan nan nan nan nan nan nan nan nan nan nan nan nan nan 41 180 180 348 560 560 655 689 666 666 673 648 654 758 758 830 867 1041 1041 1161 1211 1153 1153 1082 1014 1014 947 919 822 822 829 803
531 580 680 662 579 579 470 380 244 244 178 218 213 213 96 65 65 34 25 19 19 14 7 3 4 4 4 3 0 0 nan nan nan nan nan nan nan nan nan nan nan nan nan nan nan nan nan nan nan nan nan nan nan nan nan nan nan nan nan nan nan nan nan nan nan nan nan nan nan nan nan 0 49 49 206 367 367 510 603 673 673 683 693 671 741 741 778 782 887 887 1103 1261 1276 1276 1216 1146 1146 1112 1086 1022 1022 955 926
439 523 612 531 415 415 501 370 237 237 149 168 205 205 104 73 73 37 33 22 22 17 10 6 3 3 4 2 0 0 nan nan nan nan nan nan nan nan nan nan nan nan nan nan nan nan nan nan nan nan nan nan nan nan nan nan nan nan nan nan nan nan nan nan nan nan nan nan nan nan nan nan nan nan 45 175 175 327 467 561 561 662 736 781 791 791 762 767 805 805 945 1092 1212 1212 1219 1233 1233 1297 1304 1316 1316 1165 1095
339 330 285 162 182 182 311 319 253 253 164 184 176 176 94 64 64 39 35 28 28 23 13 11 6 6 3 1 nan nan nan nan nan nan nan nan nan nan nan nan nan nan nan nan nan nan nan nan nan nan nan nan nan nan nan nan nan nan nan nan nan nan nan nan nan nan nan nan nan nan nan nan nan nan nan 31 31 127 267 405 405 524 652 788 832 832 808 782 785 785 823 896 1010 1010 1127 1219 1219 1317 1454 1465 1465 1388 1266
331 129 55 66 149 149 172 205 246 246 227 200 191 191 101 69 69 41 33 29 29 25 17 12 9 9 4 2 0 0 nan nan nan nan nan nan nan nan nan nan nan nan nan nan nan nan nan nan nan nan nan nan nan nan nan nan nan nan nan nan nan nan nan nan nan nan nan nan nan nan nan nan nan nan nan nan nan 11 75 194 194 296 489 703 806 806 847 856 828 828 801 809 889 889 1009 1096 1096 1263 1395 1518 1518 1556 1403
381 77 32 62 121 121 81 74 143 143 230 224 167 167 95 61 61 49 30 30 30 29 16 14 14 14 6 0 0 0 nan nan nan nan nan nan nan nan nan nan nan nan nan nan nan nan nan nan nan nan nan nan nan nan nan nan nan nan nan nan nan nan nan nan nan nan nan nan nan nan nan nan nan nan nan nan nan nan 5 32 32 72 205 400 600 600 758 861 870 870 812 791 839 839 922 1007 1007 1130 1294 1462 1462 1501 1470
276 356 259 100 54 54 28 nan 0 0 39 71 51 51 58 55 55 31 26 26 26 21 8 1 2 2 3 0 nan nan nan nan nan nan nan nan nan nan nan nan nan nan nan nan nan nan nan nan nan nan nan nan nan nan nan nan nan nan nan nan nan nan nan nan nan nan nan nan nan nan nan nan nan nan nan nan nan nan nan nan nan nan 0 33 186 186 337 520 640 640 709 784 829 829 878 893 893 946 1068 1226 1226 1309 1276
25 51 79 120 60 60 20 nan 0 0 6 15 11 11 25 22 22 18 14 14 14 12 1 nan nan nan nan 0 nan nan nan nan nan nan nan nan nan nan nan nan nan nan nan nan nan nan nan nan nan nan nan nan nan nan nan nan nan nan nan nan nan nan nan nan nan nan nan nan nan nan nan nan nan nan nan nan nan nan nan nan nan nan nan 5 60 60 183 309 434 434 577 643 713 713 787 833 833 884 971 1091 1091 1175 1182
6 21 12 20 21 21 18 5 8 8 3 7 11 11 10 14 14 16 12 4 4 3 nan nan nan nan nan nan nan nan nan nan nan nan nan nan nan nan nan nan nan nan nan nan nan nan nan nan nan nan nan nan nan nan nan nan nan nan nan nan nan nan nan nan nan nan nan nan nan nan nan nan nan nan nan nan nan nan nan nan nan nan nan nan 13 13 60 141 282 282 430 546 610 610 709 749 749 826 909 958 958 1042 1053
35 8 13 13 10 10 9 5 6 6 6 3 9 9 14 10 10 9 12 5 5 0 nan nan nan nan nan nan nan nan nan nan nan nan nan nan nan nan nan nan nan nan nan nan nan nan nan nan nan nan nan nan nan nan nan nan nan nan nan nan nan nan nan nan nan nan nan nan nan nan nan nan nan nan nan nan nan nan nan nan nan nan nan nan nan nan 10 29 104 104 278 403 517 517 639 707 707 745 820 867 867 880 928
65 41 29 22 7 7 2 1 1 1 4 2 6 6 7 1 1 2 9 10 10 nan nan nan nan nan nan nan nan nan nan nan nan nan nan nan nan nan nan nan nan nan nan nan nan nan nan nan nan nan nan nan nan nan nan nan nan nan nan nan nan nan nan nan nan nan nan nan nan nan nan nan nan nan nan nan nan nan nan nan nan nan nan nan nan nan nan nan 19 19 103 254 402 402 515 606 606 672 742 784 784 796 776
66 65 47 41 17 17 11 6 1 1 2 4 10 10 3 0 0 2 8 10 10 1 nan nan nan nan nan nan nan nan nan nan nan nan nan nan nan nan nan nan nan nan nan nan nan nan nan nan nan nan nan nan nan nan nan nan nan nan nan nan nan nan nan nan nan nan nan nan nan nan nan nan nan nan nan nan nan nan nan nan nan nan nan nan nan nan nan nan nan nan 18 102 248 248 397 510 510 572 638 708 708 718 665
40 55 38 24 33 33 36 18 3 3 5 29 13 13 1 0 0 4 4 19 19 7 nan nan nan nan nan nan nan nan nan nan nan nan nan nan nan nan nan nan nan nan nan nan nan nan nan nan nan nan nan nan nan nan nan nan nan nan nan nan nan nan nan nan nan nan nan nan nan nan nan nan nan nan nan nan nan nan nan nan nan nan nan nan nan nan nan nan nan nan nan 29 99 99 238 364 364 449 569 605 605 674 621
28 25 6 7 12 12 22 18 4 4 10 13 8 8 4 2 2 7 12 27 27 11 nan nan nan nan nan nan nan nan 0 nan nan nan nan nan nan nan nan nan nan nan nan nan nan nan nan nan nan nan nan nan nan nan nan nan nan nan nan nan nan nan nan nan nan nan nan nan nan nan nan nan nan nan nan nan nan nan nan nan nan nan nan nan nan nan nan nan nan nan nan nan 33 33 79 163 163 305 418 508 508 573 579
13 18 13 4 2 2 4 9 4 4 6 nan nan nan 1 10 10 6 18 28 28 15 0 2 0 0 0 0 0 0 0 0 2 2 0 nan nan nan nan nan nan nan nan nan nan nan nan nan nan nan nan nan nan nan nan nan nan nan nan nan nan nan nan nan nan nan nan nan nan nan nan nan nan nan nan nan nan nan nan nan nan nan nan nan nan nan nan nan nan nan nan nan 0 0 16 59 59 138 251 388 388 477 539
nan nan nan nan nan nan nan 0 2 2 nan nan nan nan nan 3 3 0 nan 1 1 1 1 33 21 21 1 2 0 0 0 0 0 0 nan nan nan nan nan nan nan nan nan nan nan nan nan nan nan nan nan nan nan nan nan nan nan nan nan nan nan nan nan nan nan nan nan nan nan nan nan nan nan nan nan nan nan nan nan nan nan nan nan nan nan nan nan nan nan nan nan nan nan nan 0 15 15 53 113 226 226 359 444
0 nan nan nan nan nan 5 1 0 0 nan nan nan nan 2 3 3 nan nan nan nan 1 15 30 39 39 15 9 3 3 nan nan nan nan nan nan nan 0 nan nan nan nan nan nan nan nan nan nan nan nan nan nan nan nan nan nan nan nan nan nan nan nan nan nan nan nan nan nan nan nan nan nan nan nan nan nan nan nan nan nan nan nan nan nan nan nan nan nan nan nan nan nan nan nan nan 0 0 14 47 99 99 194 323
6 nan nan nan nan nan 2 18 10 10 nan 0 3 3 15 16 16 7 1 nan nan nan 24 30 25 25 33 17 5 5 1 nan nan nan nan nan nan 0 0 nan nan nan nan nan nan nan nan nan nan nan nan nan nan nan nan nan nan nan nan nan nan nan nan nan nan nan nan nan nan nan nan nan nan nan nan nan nan nan nan nan nan nan nan nan nan nan nan nan nan nan nan nan nan nan nan nan nan 0 16 50 50 101 206
4 nan nan nan nan nan 6 18 29 29 14 1 8 8 33 62 62 60 39 27 27 30 47 33 18 18 48 50 14 14 5 nan nan nan nan nan nan nan nan nan nan nan nan nan nan nan nan nan nan nan nan nan nan nan nan nan nan nan nan nan nan nan nan nan nan nan nan nan nan nan nan nan nan nan nan nan nan nan nan nan nan nan nan nan nan nan nan nan nan nan nan nan nan nan nan nan nan nan 1 19 19 61 103
nan 7 11 nan nan nan 6 18 26 26 33 14 11 11 48 55 55 55 62 54 54 52 27 32 34 34 57 90 52 52 33 1 nan nan nan 0 0 nan nan nan nan 0 0 nan nan nan nan nan nan nan nan nan nan nan nan nan nan nan nan nan nan nan nan nan nan nan nan nan nan nan nan nan nan nan nan nan nan nan nan nan nan nan nan nan nan nan nan nan nan nan nan nan nan nan nan nan nan nan nan 7 7 28 69
nan 6 39 40 nan nan 6 24 17 17 26 39 39 39 49 44 44 26 38 37 37 29 17 18 25 25 43 55 76 76 70 40 0 0 nan 1 1 nan nan nan nan 1 3 5 nan nan nan nan 0 0 nan nan nan nan nan nan nan nan nan nan nan nan nan nan nan nan nan nan nan nan nan nan nan nan nan nan nan nan nan nan nan nan nan nan nan nan nan nan nan nan nan nan nan nan nan nan nan nan nan 5 5 15 44
0 45 77 86 49 49 36 59 38 38 41 52 58 58 68 50 50 32 13 11 11 29 9 11 19 19 9 7 34 34 62 47 7 7 2 1 1 0 nan nan nan nan nan nan 1 1 0 1 2 2 1 nan nan nan nan nan nan nan nan nan nan nan nan nan nan nan nan nan nan nan nan nan nan nan nan nan nan nan nan nan nan nan nan nan nan nan nan nan nan nan nan nan nan nan nan nan nan nan nan 6 6 14 28
2 66 144 123 101 101 109 102 90 90 75 62 79 79 101 93 93 66 36 24 24 5 5 12 10 10 5 3 30 30 51 28 6 6 1 nan nan nan 0 nan nan nan nan nan nan nan nan 2 5 5 6 2 nan nan nan nan nan nan nan nan nan nan nan nan nan nan nan nan nan nan nan nan nan nan nan nan nan nan nan nan nan nan nan nan nan nan nan nan nan nan nan nan nan nan nan nan nan nan nan 3 3 13 27
0 9 17 60 153 153 181 146 132 132 127 69 89 89 115 131 131 108 83 70 70 52 54 34 5 5 14 30 56 56 41 9 nan nan nan 0 0 nan nan nan nan nan nan nan nan nan nan 1 5 5 10 9 1 1 nan nan nan nan nan nan nan nan nan nan nan nan nan nan nan nan nan nan nan nan nan nan nan nan nan nan nan nan nan nan nan nan nan nan nan nan nan nan nan nan nan nan nan nan nan 3 3 12 33
nan nan 1 6 30 30 96 124 152 152 122 60 111 111 147 134 134 113 108 57 57 36 83 61 12 12 17 50 42 42 27 7 nan nan nan nan nan nan nan nan nan nan nan nan nan nan nan 0 2 2 9 9 6 6 1 nan nan nan nan nan nan nan nan nan nan nan nan nan nan nan nan nan nan nan nan nan nan nan nan nan nan nan nan nan nan nan nan nan nan nan nan nan nan nan nan nan nan nan nan 1 1 12 35